Simultaneous Nadir Overpasses (SNOs) Predictions

Prediction of SNOs between METOP-A and NOAA-19 Satellite Orbit:

Table of predicted SNOs for the next 14.0 days since TLE Epoch: 9/17/2016
Index Date (METOP-A) Time (METOP-A) Lat,Lon (METOP-A) SZA (METOP-A ) Date (NOAA-19) Time (NOAA-19) Lat,Lon (NOAA-19) SZA (NOAA-19 ) Distance(km) Time Diff (sec)
1 09/24/2016 10:39:45 76.90, 23.31 77.61 09/24/2016 10:38:39 76.90, 19.80 77.56 88.39 66
2 09/24/2016 11:30:37 -76.43,-171.18 102.89 09/24/2016 11:29:32 -76.43,-171.04 102.89 3.74 65
3 09/24/2016 12:21:17 76.44, -3.81 77.14 09/24/2016 12:20:30 76.43, -3.77 77.13 1.36 47
4 09/24/2016 13:11:59 -76.41, 163.41 102.88 09/24/2016 13:11:34 -76.44, 163.44 102.86 2.93 25
5 09/24/2016 14:02:39 76.42, -29.22 77.15 09/24/2016 14:02:32 76.43, -29.29 77.16 2.34 7
6 09/24/2016 14:53:21 -76.39, 138.01 102.87 09/24/2016 14:53:35 -76.40, 138.09 102.87 2.24 14
7 09/24/2016 15:44:01 76.40, -54.62 77.16 09/24/2016 15:44:33 76.39, -54.64 77.15 1.20 32
8 09/24/2016 16:34:43 -76.38, 112.60 102.86 09/24/2016 16:35:37 -76.40, 112.57 102.84 2.80 54
9 09/24/2016 17:25:23 76.39, -80.03 77.17 09/24/2016 17:26:35 76.40, -80.15 77.18 3.46 72




NCC Satellite Simultaneous Nadir Overpasses (SNOs) Prediction Service
